User: anonymous   Login
Location: Newark
(15.4608°S, 41.1635°W)
Time: 22:05:19
(UTC+00:00)
Language:

A-11 Canister half - Orbit

View from above orbital plane
View from above orbital plane
View from above satellite
View from above satellite

Ground track
Ground track

The orbit data is extracted from the following two-line orbital elements,

1 00051U 60009C   21211.31495171 -.00000119  00000-0 -34020-3 0  9994
2 00051  47.2116 165.5987 0109057 296.0324  62.9269 12.18277500713815
Epoch (UTC): 30 July 2021 07:33:31
Eccentricity: 0.0109057
inclination: 47.2116°
perigee height: 1513 km
apogee height: 1687 km
right ascension of ascending node: 165.5987°
argument of perigee: 296.0324°
revolutions per day: 12.18277500
mean anomaly at epoch: 62.9269°
orbit number at epoch: 71381

The dashed part of the orbit path shows where the satellite is in the earth's shadow,  

DLR